This is the latest recevied weather packets stored in our database for station/object M0ADS. If no packets are shown the sender has not sent any weather packets the latest 10 day(s).
| Time | Temp. | Humidity | Pressure | Rain* | Wind** | Luminosity | Snow |
|---|---|---|---|---|---|---|---|
| 1776985959 | 5° C | 87% | 1029.4 hPa | 0 mm | - | - | - |
| 1776985059 | 5° C | 86% | 1029.7 hPa | 0 mm | - | - | - |
| 1776984158 | 5.56° C | 86% | 1029.8 hPa | 0 mm | - | - | - |
| 1776983258 | 5.56° C | 85% | 1029.8 hPa | 0 mm | - | - | - |
| 1776982358 | 6.11° C | 84% | 1030.1 hPa | 0 mm | - | - | - |
| 1776981456 | 6.11° C | 83% | 1030.1 hPa | 0 mm | - | - | - |
| 1776980556 | 6.67° C | 82% | 1030 hPa | 0 mm | - | - | - |
| 1776979656 | 6.67° C | 81% | 1030 hPa | 0 mm | - | - | - |
| 1776978756 | 7.22° C | 80% | 1030 hPa | 0 mm | - | - | - |
| 1776977856 | 7.78° C | 78% | 1029.8 hPa | 0 mm | - | - | - |
| 1776976956 | 8.33° C | 77% | 1029.8 hPa | 0 mm | - | - | - |
| 1776976056 | 8.33° C | 75% | 1029.7 hPa | 0 mm | - | - | - |
| 1776975156 | 8.89° C | 74% | 1029.6 hPa | 0 mm | - | - | - |
| 1776974256 | 9.44° C | 71% | 1029.6 hPa | 0 mm | - | - | - |
| 1776973356 | 10° C | 70% | 1029.3 hPa | 0 mm | - | - | - |
| 1776972455 | 10.56° C | 68% | 1029.2 hPa | 0 mm | - | - | - |
| 1776971556 | 11.11° C | 67% | 1029.1 hPa | 0 mm | - | - | - |
| 1776970654 | 11.67° C | 65% | 1029.1 hPa | 0 mm | - | - | - |
| 1776969754 | 11.67° C | 62% | 1029 hPa | 0 mm | - | - | - |
| 1776968853 | 12.22° C | 59% | 1029 hPa | 0 mm | - | - | - |
| 1776967951 | 12.78° C | 59% | 1029.1 hPa | 0 mm | - | - | - |
| 1776967051 | 13.33° C | 56% | 1029.1 hPa | 0 mm | - | - | - |
| 1776966150 | 13.89° C | 53% | 1029.1 hPa | 0 mm | - | - | - |
| 1776965252 | 14.44° C | 52% | 1029.2 hPa | 0 mm | - | - | - |
| 1776964349 | 14.44° C | 51% | 1029.2 hPa | 0 mm | - | - | - |
* Rain latest hour (hover to see other rain measurements)
** Current wind speed in m/s (hover to see current wind gust speed)